Location: Unspecified
(50.7693°N, 0.0000°E)
Time: 18:33:45
(UTC+00:00)

Transit 2A - Pass Details

Date: 27 June 2019
Orbit: 597 x 962 km, 66.7° (Epoch: 19 August)

Event Time Altitude Azimuth Distance (km) Brightness Sun altitude
Rises 21:03:23 0° 146° (SSE) 3,630 - -6.0°
Exits shadow 21:06:21 - 129° (SE) 2,966 8.4 -6.3°
Reaches altitude 10° 21:08:28 10° 112° (ESE) 2,694 8.3 -6.5°
Maximum altitude 21:09:47 11° 99° (E) 2,640 8.3 -6.7°
Drops below altitude 10° 21:11:06 10° 87° (E) 2,686 8.5 -6.8°
Sets 21:16:06 0° 52° (NE) 3,590 9.5 -7.3°
